Tracking 35274 objects as of 11-Sep-2026
HD Live streaming from Space Station
objects crossing your sky now

STARLINK-4254

Track STARLINK-4254 now!
10-day predictions
STARLINK-4254 is classified as:


NORAD ID: 52998
Int'l Code: 2022-076N
Launch date: July 7, 2022
Source: United States (US)
Launch site: AIR FORCE EASTERN TEST RANGE (AFETR)
Your satellite tracking list
Your tracking list is empty




NASA's NSSDC Master Catalog

Two Line Element Set (TLE):
1 52998U 22076N   26253.52661845 -.00000117  00000-0  76776-5 0  9993
2 52998  53.1617 330.0115 0001370  89.6585 270.4574 15.34387085230944
Source of the keplerian elements: AFSPC